Location: Unspecified
(54.1780°N, 0.0000°E)
Time: 14:14:08
(UTC+00:00)

Transit 2A - Pass Details

Date: 19 June 2019
Orbit: 597 x 962 km, 66.7° (Epoch: 19 August)

Event Time Altitude Azimuth Distance (km) Brightness Sun altitude
Rises 10:49:30 0° 313° (NW) 3,473 9.1 56.4°
Reaches altitude 10° 10:52:45 10° 297° (WNW) 2,462 8.5 56.7°
Maximum altitude 10:56:34 19° 254° (WSW) 1,829 8.1 56.9°
Drops below altitude 10° 11:00:09 10° 211° (SSW) 2,280 8.9 57.2°
Sets 11:03:02 0° 193° (SSW) 3,127 9.5 57.4°
